Regional Weather Roundup
Issued by NWS

Home | Current Version | Previous Version | Text Only | Print | Product List | Glossary Off
Versions: 1 2 3 4 5 6 7 8 9 10 11 12 13 14 15 16 17 18 19 20 21 22 23 24 25 26 27 28 29 30 31 32 33 34 35 36 37 38 39 40 41 42 43 44 45 46 47 48 49 50

000
ASUS43 KOAX 011110
RWRNE

WEATHER ROUNDUP FOR NEBRASKA
NATIONAL WEATHER SERVICE OMAHA NE
600 AM CDT SAT AUG 01 2015

NOTES: SATELLITE DATA IS BEING USED TO AUGMENT CLOUD COVER ABOVE
       12000 FEET.
       "FAIR" INDICATES FEW OR NO CLOUDS BELOW 12,000 FEET WITH NO
       SIGNIFICANT WEATHER AND/OR OBSTRUCTIONS TO VISIBILITY.

  * THESE STATIONS DO NOT REPORT WEATHER SUCH AS RAIN...SNOW OR FOG.

NEZ001>004-019>022-054>056-011200-
NEBRASKA PANHANDLE

CITY           SKY/WX    TMP DP  RH WIND       PRES   REMARKS
SCOTTSBLUFF    CLEAR     64  55  72 E5        30.09F
ALLIANCE       CLEAR     57  54  89 S8        30.09F
CHADRON        CLEAR     57  53  86 W6        30.03F
KIMBALL        CLEAR     60  56  86 S6        30.16F
SIDNEY         CLEAR     63  56  78 SW10      30.15F
$$

NEZ057>060-069>072-079>082-011200-
SOUTHWEST NEBRASKA

CITY           SKY/WX    TMP DP  RH WIND       PRES   REMARKS
NORTH PLATTE   CLEAR     72  59  63 SW12      30.07F
IMPERIAL       CLEAR     65  58  78 SE9       30.13R
LEXINGTON      CLEAR     70  55  58 SW3       30.05F
MCCOOK         PTCLDY    70  53  54 S8        30.09F
OGALLALA       CLEAR     62  59  91 CALM      30.11S
$$

NEZ005>010-023>029-035>040-094-011200-
NORTH CENTRAL NEBRASKA

CITY           SKY/WX    TMP DP  RH WIND       PRES   REMARKS
VALENTINE      PTCLDY    66  54  65 CALM      30.09R
AINSWORTH      PTCLDY    63  57  82 S9        30.08S
BROKEN BOW     CLEAR     64  60  87 CALM      30.09R
O`NEILL        LGT RAIN  68  62  81 W14       30.12R
ORD            MOCLDY    65  62  90 N15       30.12R
THEDFORD       CLEAR     62  60  93 SE6       30.12R
$$

NEZ041-046>049-061>064-073>077-083>087-011200-
SOUTH CENTRAL NEBRASKA

CITY           SKY/WX    TMP DP  RH WIND       PRES   REMARKS
GRAND ISLAND   MOCLDY    69  60  73 E10       30.10F
AURORA         MOCLDY    66  64  94 S9        30.10F
HASTINGS       PTCLDY    69  59  70 E13       30.09F
HEBRON         PTCLDY    66  62  88 CALM      30.08R
HOLDREGE       CLEAR     67  60  78 CALM      30.05F
KEARNEY *      PTCLDY    63  59  88 E10       30.08F
YORK           LGT RAIN  64  64 100 NE5       30.10F
$$

NEZ011>018-030>034-042>045-011200-
NORTHEAST NEBRASKA

CITY           SKY/WX    TMP DP  RH WIND       PRES   REMARKS
NORFOLK        MOCLDY    64  62  93 W3        30.06R
ALBION         LGT RAIN  66  61  83 SW5       30.10R
BLAIR          FOG       65  63  93 CALM      30.04S VSB 1/2
COLUMBUS *     CLOUDY    64  57  77 CALM      30.08R
FREMONT        PTCLDY    65  62  93 CALM      30.04S
TEKAMAH        CLEAR     61  59  93 CALM      30.03S
WAYNE          PTCLDY    59  58  97 S5        30.04S
$$

NEZ050>053-065>068-078-088>093-011200-
SOUTHEAST NEBRASKA

CITY           SKY/WX    TMP DP  RH WIND       PRES   REMARKS
LINCOLN        CLOUDY    65  63  93 CALM      30.05S
OMAHA EPPLEY   PTCLDY    69  66  90 S5        30.03F
BEATRICE       PTCLDY    65  64  94 CALM      30.05F
FALLS CITY     CLEAR     69  68  96 E3        30.03S
NEBRASKA CITY  MOCLDY    67  66  99 CALM      30.04S
PLATTSMOUTH    PTCLDY    67  65  95 S5        30.03F
$$

NEZ044-045-051>053-067-011200-
OMAHA AREA

CITY           SKY/WX    TMP DP  RH WIND       PRES   REMARKS
OMAHA EPPLEY   PTCLDY    69  66  90 S5        30.03F
BLAIR          FOG       65  63  93 CALM      30.04S VSB 1/2
FREMONT        PTCLDY    65  62  93 CALM      30.04S
MILLARD        PTCLDY    67  66  96 CALM      30.03S
OFFUTT AFB     PTCLDY    64  64  99 CALM      30.02F
PLATTSMOUTH    PTCLDY    67  65  95 S5        30.03F
WAHOO          FAIR      62  61  95 SW3       30.05R
$$


USA.gov is the U.S. government's official web portal to all federal, state and local government web resources and services.